Flag for Sweden Weather past 2 weeks in Linköping, Sweden

Now
50 °F

Mostly cloudy.


Feels Like: 46 °F
Forecast: 46 / 54 °F
Wind: 9 mph from South

Location: Linkoping / Saab

Current Time: Oct 25, 2014 at 2:10:47 AM

Latest Report: Oct 25, 2014 at 1:20 AM


Visibility: N/A

Pressure: 30.01 "Hg

Humidity: 94%

Dew point: 48 °F

Location of LinköpingLocation

Historic Weather in Linköping — Graph

°F

Linköping temperature yesterday

Maximum temperature yesterday: 50 °F (at 7:20 PM)
Minimum temperature yesterday: 41 °F (at 12:20 AM)
Average temperature yesterday: 46 °F

Past Weeks' High & Low Weather Summary

 TemperatureHumidityPressure
High61 °F (Oct 10, 2:20 PM)100% (Oct 10, 12:20 AM)30.24 "Hg (Oct 10, 12:20 AM)
Low36 °F (Oct 23, 1:20 AM)63% (Oct 10, 4:20 PM)29.36 "Hg (Oct 20, 6:50 AM)
Average47 °F91%29.88 "Hg
* Reported Oct 10 12:20 AM — Oct 25 12:50 AM, Linköping, Weather by CustomWeather, © 2014

Note: Actual official high and low records may vary slightly from our data, if they occured in-between our weather recording intervals... More about our weather records

Advertising

Linköping weather history for previous 24 hours

 ConditionsComfort  
Time TempWeatherWind HumidityBarometerVisibility
12:50 AM
Oct 25
50 °FPartly cloudy.9 mph94%30.04 "HgN/A
12:20 AM50 °FMostly cloudy.12 mph94%30.04 "HgN/A
11:50 PM
Oct 24
50 °FMostly cloudy.10 mph94%30.04 "HgN/A
11:20 PM50 °FMostly cloudy.10 mph94%30.04 "HgN/A
10:50 PM50 °FMostly cloudy.12 mph94%30.04 "HgN/A
10:20 PM50 °FLight rain. Mostly cloudy.13 mph94%30.04 "HgN/A
9:50 PM50 °FLight rain. Mostly cloudy.14 mph94%30.04 "HgN/A
9:20 PM48 °FLight rain. Low clouds.13 mph100%30.04 "HgN/A
8:50 PM50 °FLight rain. Partly cloudy.13 mph94%30.04 "HgN/A
8:20 PM50 °FLight rain. Low clouds.13 mph94%30.04 "HgN/A
7:50 PM50 °FLow clouds.13 mph94%30.04 "HgN/A
7:20 PM50 °FLow clouds.12 mph94%30.04 "HgN/A
6:50 PM48 °FLow clouds.12 mph100%30.07 "HgN/A
6:20 PM48 °FLow clouds.12 mph100%30.07 "HgN/A
5:50 PM48 °FLow clouds.13 mph100%30.07 "HgN/A
5:20 PM48 °FLow clouds.13 mph100%30.07 "HgN/A
4:50 PM48 °FLight rain. Partly sunny.10 mph94%30.07 "HgN/A
4:20 PM48 °FRain. Fog.14 mph94%30.07 "Hg5 mi
3:50 PM48 °FLight rain. Overcast.13 mph94%30.09 "HgN/A
3:20 PM48 °FOvercast.13 mph94%30.09 "HgN/A
2:50 PM48 °FOvercast.13 mph87%30.09 "HgN/A
2:20 PM48 °FMostly cloudy.14 mph87%30.09 "HgN/A
1:50 PM48 °FPartly sunny.14 mph87%30.12 "HgN/A
1:20 PM48 °FPartly sunny.13 mph87%30.12 "HgN/A
12:50 PM48 °FPartly sunny.13 mph87%30.12 "HgN/A
12:20 PM48 °FPartly sunny.12 mph87%30.12 "HgN/A
11:50 AM46 °FBroken clouds.13 mph87%30.12 "HgN/A
11:20 AM46 °FBroken clouds.12 mph87%30.12 "HgN/A
10:50 AM46 °FPartly sunny.14 mph87%30.12 "HgN/A
10:20 AM46 °FMostly cloudy.15 mph87%30.12 "HgN/A
9:50 AM46 °FBroken clouds.14 mph82%30.15 "HgN/A
9:20 AM45 °FPartly sunny.14 mph87%30.12 "HgN/A
8:50 AM45 °FMostly cloudy.12 mph87%30.15 "HgN/A
8:20 AM45 °FSprinkles. Passing clouds.13 mph87%30.15 "HgN/A
7:50 AM45 °FPassing clouds.12 mph81%30.15 "HgN/A
7:20 AM45 °FPassing clouds.10 mph81%30.15 "HgN/A
6:50 AM45 °FPassing clouds.13 mph81%30.15 "HgN/A
6:20 AM45 °FPartly cloudy.13 mph81%30.15 "HgN/A
5:50 AM45 °FPassing clouds.10 mph81%30.15 "HgN/A
5:20 AM43 °FPartly cloudy.12 mph81%30.15 "HgN/A
4:50 AM43 °FPassing clouds.10 mph81%30.15 "HgN/A
4:20 AM43 °FPassing clouds.9 mph81%30.15 "HgN/A
3:50 AM43 °FOvercast.12 mph81%30.18 "HgN/A
3:20 AM43 °FOvercast.12 mph81%30.18 "HgN/A
2:50 AM43 °FOvercast.13 mph81%30.18 "HgN/A
2:20 AM41 °FMostly cloudy.13 mph81%30.21 "HgN/A
Weather by CustomWeather, © 2014

See weather overviewHow to use our weather pages